DW9209 Weather Reports


time (UTC)temp
F
wind
direction
speed
knots
gust
knots
rain 1hr
in
rain 24hr
in
rain mn
in
humidity
%
barometer
mb
20260504081528 49 175 2.6 0.0 0.00 0.00 0.00 58 1012.0
20260504050002 46 257 2.6 0.0 0.00 0.00 0.00 59 1013.0
20260504044502 46 259 1.7 0.0 0.00 0.00 0.00 59 1013.0
20260504043114 46 281 1.7 0.0 0.00 0.00 0.00 59 1012.9
20260504041558 46 291 2.6 0.0 0.00 0.00 0.00 60 1012.8
20260504040054 46 290 3.5 0.0 0.00 0.00 0.00 60 1012.8
20260504034555 47 181 2.6 0.0 0.00 0.00 0.00 58 1012.9
20260504033103 47 212 0.9 0.0 0.00 0.00 0.00 57 1012.7
20260504031557 47 243 1.7 0.0 0.00 0.00 0.00 56 1012.5
20260504030104 47 242 1.7 0.0 0.00 0.00 0.00 55 1012.5
20260504024552 48 251 1.7 0.0 0.00 0.00 0.00 55 1012.5
20260504023052 48 243 1.7 0.0 0.00 0.00 0.00 58 1012.4
20260504021552 48 238 0.9 0.0 0.00 0.00 0.00 53 1012.3
20260504020055 48 240 0.9 0.0 0.00 0.00 0.00 54 1012.2
20260504014551 48 240 1.7 0.0 0.00 0.00 0.00 57 1012.0
20260504013054 49 236 2.6 0.0 0.00 0.00 0.00 57 1012.0
20260504011549 49 239 1.7 0.0 0.00 0.00 0.00 54 1012.0
20260504010056 49 235 0.9 0.0 0.00 0.00 0.00 52 1012.1
20260504004548 50 235 0.0 0.0 0.00 0.00 0.00 52 1011.9
20260504003048 52 235 0.0 0.0 0.00 0.00 0.00 51 1011.7
20260504001556 53 241 0.0 0.0 0.00 0.00 0.00 48 1011.6
20260504000051 54 247 0.0 0.0 0.00 0.00 0.00 50 1011.6
20260503234546 55 247 0.9 0.0 0.00 0.00 0.00 52 1011.4
20260503233050 56 316 2.6 0.0 0.00 0.00 0.00 51 1011.4
20260503231546 57 281 2.6 0.0 0.00 0.00 0.00 46 1011.3
20260503224545 58 283 3.5 0.0 0.00 0.00 0.00 44 1011.1
20260503223100 59 266 5.2 0.0 0.00 0.00 0.00 43 1011.1
20260503221549 60 255 5.2 0.0 0.00 0.00 0.00 43 1011.3
20260503220043 60 263 5.2 0.0 0.00 0.00 0.00 41 1011.3
20260503214553 60 233 5.2 0.0 0.00 0.00 0.00 42 1011.3
20260503213045 60 338 5.2 0.0 0.00 0.00 0.00 40 1011.5
20260503211541 60 250 4.3 0.0 0.00 0.00 0.00 42 1011.4
20260503210040 60 237 5.2 0.0 0.00 0.00 0.00 40 1011.4
20260503204544 60 354 5.2 0.0 0.00 0.00 0.00 39 1011.4
20260503203041 61 217 6.1 0.0 0.00 0.00 0.00 39 1011.5
20260503201544 61 193 6.1 0.0 0.00 0.00 0.00 39 1011.5
20260503200037 61 254 5.2 0.0 0.00 0.00 0.00 39 1011.9
20260503194537 61 280 8.7 0.0 0.00 0.00 0.00 39 1012.1
20260503193030 62 298 7.0 0.0 0.00 0.00 0.00 37 1012.2
20260503191526 60 331 5.2 0.0 0.00 0.00 0.00 45 1012.5
20260503190038 60 293 6.1 0.0 0.00 0.00 0.00 44 1012.6
20260503184524 61 231 5.2 0.0 0.00 0.00 0.00 43 1012.9
20260503183020 60 187 6.1 0.0 0.00 0.00 0.00 46 1013.0
20260503181534 59 194 5.2 0.0 0.00 0.00 0.00 46 1013.0
20260503180024 59 241 7.0 0.0 0.00 0.00 0.00 49 1013.1
20260503174513 59 269 6.1 0.0 0.00 0.00 0.00 45 1013.2
20260503173010 58 316 7.8 0.0 0.00 0.00 0.00 47 1013.5
20260503171520 58 278 6.1 0.0 0.00 0.00 0.00 50 1013.5